FREGAT DEB, 47336

Orbit data source: Space-Track

FREGAT DEB, 47336 is space debris in LEO originally from a launch on Mon, 18 Jul 2011 UTC launched from the Tyuratam Missile And Space Complex (TTMTR). Debris objects in space refer to the collection of defunct objects orbiting the Earth. Examples of debris include non-operational satellites, rocket bodies, and fragments generated from explosions, collisions, or faulty payload assembly.

Loading next visibility...
Identifier
47336, 2011-037NT
Orbit
LEO
Country
Flag of CISCIS
Related business
Manufacturer
Lavochkin
Mission
Spacecraft
Bus & Motor
Unknown
Mass
Unknown
Launch date (UTC)
2011-07-18 (14 years ago)
Launch vehicle
Unknown
Launch site
Tyuratam Missile And Space Complex (TTMTR)
Object type
Payload
Rocket body
Debris
Shape & HBR
Unknown shape, 0.1 m
Radar Cross Section
Small (<0.1 m²)

Expand to show TLE details & history
Last TLE update: 1 day ago

TLE from 1 day ago
0 FREGAT DEB
1 47336U 11037NT  25286.69918561  .00026640  00000-0  21853-1 0  9991
2 47336  51.6523  41.4060 0919702  76.4547 293.6986 12.72505340207239
Epoch: 2025-10-13T16:46Z
TLE epoch observation values (Epoch: 2025-10-13T16:46:49.636Z)
Latitude
-0.00001°
Longitude
127.20096°
Altitude
1,143.79 km
Speed
7.388 km/s
True Right ascension
02h 45m 37s
True Declination
0° 00' 00"
Sunlit
Object was in full shadow at epoch
Visualization orbit readout
Latitude
Unknown
Longitude
Unknown
Altitude
Unknown
Speed
Unknown
Apparent Right ascension
Unknown
Apparent Declination
Unknown
Sunlit
N/A
Visualization observer readout
Local Sidereal Time
11:57:56
Azimuth
Unknown
Elevation
Unknown
Doppler factor
Unknown
Orbital elements
Apogee altitude
2,085.002 km
Perigee altitude
659.401 km
Semi-major axis
7,750.338 km
Eccentricity
0.09197
Inclination
51.6523°
RAAN
41.406°
Arg. of periapsis
76.4547°
True anomaly
283.63407°
Mean anomaly
293.6986°
Eccentric anomaly
288.70749°
Mean motion
3.18099 °/min
Orbital period
113.17 mins
BSTAR
0.021853
Loading maneuver chart data...
Computing Atmospheric mass density...
Loading historical data...
Loading historical data...
Loading historical data...
Loading historical data...
Loading historical data...
Loading historical data...
Loading historical data...

Documentation

Showing up to 5 results
|